Location: Bletchingley
(51.2333°N, 0.1000°W)
Time: 13:08:11
(UTC+00:00)

Okean 1-7 Rocket - Pass Details

Date: 18 September 2020
Orbit: 616 x 649 km, 82.5° (Epoch: 25 October)

Event Time Altitude Azimuth Distance (km) Brightness Sun altitude
Rises 20:40:25 0° 352° (N) 2,981 7.7 -23.3°
Reaches altitude 10° 20:42:44 10° 357° (N) 2,066 6.7 -23.6°
Enters shadow 20:46:40 51° 45° (NE) 823 4.0 -24.1°
